GW3457 Weather Reports


time (UTC)temp
C
wind
direction
speed
KPH
gust
KPH
rain 1hr
cm
rain 24hr
cm
rain mn
cm
humidity
%
barometer
mb
20260509201555 18 0 4.8 12.9 0.00 0.33 0.33 69 1009.4
20260509200052 17 13 3.2 12.9 0.00 0.33 0.33 74 1009.3
20260509194556 16 26 4.8 11.3 0.00 0.33 0.33 75 1009.5
20260509193047 16 5 4.8 11.3 0.00 0.33 0.33 76 1009.7
20260509191556 16 18 4.8 12.9 0.00 0.33 0.33 78 1009.6
20260509190049 16 17 4.8 8.0 0.00 0.33 0.33 77 1009.7
20260509184550 16 0 0.0 6.4 0.00 0.33 0.33 77 1009.7
20260509183054 16 0 1.6 11.3 0.00 0.33 0.33 75 1009.8
20260509181551 16 28 4.8 12.9 0.00 0.33 0.33 77 1009.9
20260509180055 16 360 1.6 6.4 0.00 0.33 0.33 76 1009.7
20260509174549 15 15 1.6 8.0 0.00 0.33 0.33 77 1010.3
20260509173059 15 16 0.0 6.4 0.00 0.33 0.33 81 1010.4
20260509171549 14 11 3.2 6.4 0.00 0.33 0.33 81 1010.3
20260509170049 15 13 0.0 4.8 0.00 0.33 0.33 82 1010.7
20260509164546 14 0 0.0 4.8 0.00 0.33 0.33 82 1011.0
20260509163051 14 141 0.0 3.2 0.00 0.33 0.33 83 1011.0
20260509161557 13 32 1.6 6.4 0.00 0.33 0.33 84 1011.2
20260509160051 13 0 0.0 3.2 0.00 0.33 0.33 84 1011.2
20260509154551 13 0 3.2 8.0 0.00 0.33 0.33 84 1011.2
20260509153058 12 22 1.6 6.4 0.00 0.33 0.33 85 1011.2
20260509151546 12 25 0.0 6.4 0.00 0.33 0.33 86 1011.1
20260509150039 12 13 1.6 6.4 0.00 0.33 0.33 88 1011.1
20260509144552 11 9 1.6 6.4 0.03 0.33 0.33 89 1011.1
20260509143051 10 0 1.6 6.4 0.05 0.33 0.33 89 1011.1
20260509141549 10 0 0.0 4.8 0.05 0.33 0.33 89 1011.4
20260509140103 10 289 1.6 8.0 0.10 0.33 0.33 87 1011.7
20260509134549 10 210 0.0 6.4 0.13 0.30 0.30 87 1011.3
20260509133049 10 0 3.2 11.3 0.18 0.28 0.28 86 1011.2
20260509131549 10 0 0.0 1.6 0.20 0.28 0.28 90 1011.3
20260509130049 10 0 0.0 4.8 0.18 0.23 0.23 89 1011.5
20260509124550 10 150 0.0 4.8 0.18 0.18 0.18 88 1011.4
20260509123040 10 0 0.0 1.6 0.10 0.10 0.10 88 1011.5
20260509121550 10 0 0.0 0.0 0.08 0.08 0.08 87 1011.4
20260509120050 10 360 0.0 4.8 0.05 0.05 0.05 87 1011.6
20260509114547 10 0 1.6 6.4 0.00 0.00 0.00 85 1011.7
20260509113047 10 360 0.0 6.4 0.00 0.00 0.00 83 1011.7
20260509111546 10 0 0.0 3.2 0.00 0.00 0.00 82 1011.6
20260509110051 10 0 0.0 1.6 0.00 0.00 0.00 82 1011.3
20260509104553 10 0 0.0 4.8 0.00 0.00 0.00 82 1011.0
20260509103100 10 0 0.0 1.6 0.00 0.00 0.00 81 1010.8
20260509101552 11 0 0.0 3.2 0.00 0.00 0.00 79 1010.6
20260509100049 11 0 0.0 0.0 0.00 0.00 0.00 76 1010.7
20260509094554 11 0 0.0 4.8 0.00 0.00 0.00 75 1010.7
20260509093049 10 0 0.0 4.8 0.00 0.00 0.00 77 1010.7
20260509091551 10 0 0.0 3.2 0.00 0.00 0.00 78 1010.6
20260509090057 10 0 0.0 1.6 0.00 0.00 0.00 77 1010.5
20260509084557 10 146 0.0 6.4 0.00 0.00 0.00 78 1010.6
20260509083104 10 0 0.0 1.6 0.00 0.00 0.00 79 1010.6
20260509081547 10 0 0.0 3.2 0.00 0.00 0.00 78 1010.6
20260509080048 10 0 0.0 3.2 0.00 0.00 0.00 78 1010.7
20260509074608 11 0 0.0 1.6 0.00 0.00 0.00 78 1010.7
20260509073058 11 0 0.0 4.8 0.00 0.00 0.00 77 1010.8
20260509071555 11 0 0.0 1.6 0.00 0.00 0.00 77 1010.9
20260509070051 11 0 0.0 3.2 0.00 0.00 0.00 77 1010.8
20260509064547 11 0 1.6 4.8 0.00 0.00 0.00 77 1010.9
20260509063101 11 0 0.0 1.6 0.00 0.00 0.00 76 1011.1
20260509061550 11 0 0.0 1.6 0.00 0.00 0.00 75 1010.9
20260509060101 11 0 0.0 3.2 0.00 0.00 0.00 75 1010.9
20260509054549 11 360 0.0 1.6 0.00 0.00 0.00 74 1011.0
20260509053057 11 0 0.0 1.6 0.00 0.00 0.00 73 1011.1
20260509051549 12 360 0.0 3.2 0.00 0.00 0.00 73 1011.2
20260509050049 12 78 0.0 3.2 0.00 0.00 0.00 71 1011.3
20260509044539 12 0 0.0 3.2 0.00 0.00 0.00 71 1011.4
20260509043051 12 53 0.0 3.2 0.00 0.00 0.00 69 1011.3
20260509041548 12 0 0.0 1.6 0.00 0.00 0.00 69 1011.2
20260509034546 12 32 0.0 4.8 0.00 0.00 0.00 70 1011.2
20260509033107 12 0 1.6 3.2 0.00 0.00 0.00 69 1011.3
20260509031544 12 156 0.0 4.8 0.00 0.00 0.00 67 1011.5
20260509030048 13 0 0.0 1.6 0.00 0.00 0.00 68 1011.7
20260509024557 13 0 0.0 3.2 0.00 0.00 0.00 67 1011.8
20260509023046 13 0 0.0 1.6 0.00 0.00 0.00 66 1011.8
20260509021547 13 235 0.0 3.2 0.00 0.00 0.00 65 1011.8
20260509014542 13 222 0.0 3.2 0.00 0.00 0.00 64 1011.7
20260509013052 13 0 0.0 4.8 0.00 0.00 0.00 62 1011.7
20260509011558 13 232 0.0 1.6 0.00 0.00 0.00 60 1011.5
20260509010050 14 0 0.0 3.2 0.00 0.00 0.00 59 1011.4
20260509004551 15 0 0.0 3.2 0.00 0.00 0.00 58 1011.3
20260509003056 15 0 0.0 1.6 0.00 0.00 0.00 54 1011.3
20260509001546 16 0 0.0 1.6 0.00 0.00 0.00 52 1011.4
20260509000048 16 0 0.0 1.6 0.00 0.00 0.00 50 1011.3
20260508234547 16 0 0.0 3.2 0.00 0.00 0.00 47 1011.1
20260508233055 17 0 0.0 3.2 0.00 0.00 0.00 43 1011.2
20260508231550 18 17 0.0 3.2 0.00 0.00 0.00 40 1010.8
20260508230053 19 17 0.0 8.0 0.00 0.00 0.00 37 1010.9
20260508224553 20 12 3.2 11.3 0.00 0.00 0.00 35 1010.9
20260508223047 18 14 1.6 11.3 0.00 0.00 0.00 38 1011.1
20260508221547 18 13 8.0 22.5 0.00 0.00 0.00 38 1011.1
20260508220052 18 13 6.4 17.7 0.00 0.00 0.00 37 1011.1
20260508214547 18 13 4.8 20.9 0.00 0.00 0.00 38 1011.0
20260508213054 18 17 6.4 25.7 0.00 0.00 0.00 37 1011.2
20260508211550 18 15 9.7 24.1 0.00 0.00 0.00 37 1011.2
20260508210054 18 15 8.0 24.1 0.00 0.00 0.00 37 1011.3
20260508204558 18 17 9.7 22.5 0.00 0.00 0.00 36 1011.4
20260508203058 18 16 8.0 24.1 0.00 0.00 0.00 35 1011.5